Regional Weather Roundup
Issued by NWS

Home | Current Version | Previous Version | Text Only | Print | Product List | Glossary Off
Versions: 1 2 3 4 5 6 7 8 9 10 11 12 13 14 15 16 17 18 19 20 21 22 23 24 25 26 27 28 29 30 31 32 33 34 35 36 37 38 39 40 41 42 43 44 45 46 47 48 49 50

000
ASUS43 KMKX 011621
RWRWI

WISCONSIN REGIONAL WEATHER ROUNDUP
NATIONAL WEATHER SERVICE MILWAUKEE/SULLIVAN WI
1000 AM CST SUN MAR 01 2015

NOTE: "FAIR" INDICATES FEW OR NO CLOUDS BELOW 12,000 FEET WITH NO
SIGNIFICANT WEATHER AND/OR OBSTRUCTIONS TO VISIBILITY.

WIZ001-002-006>008-014>016-023>028-011700-
NORTHWEST WISCONSIN

CITY           SKY/WX    TMP DP  RH WIND       PRES   REMARKS
SUPERIOR ARPT  PTSUNNY   18   9  67 W13       30.18S WCI   5
ASHLAND        LGT SNOW  19  11  70 SW12      30.16S WCI   7
HAYWARD        LGT SNOW  16  11  80 SW7       30.16S WCI   6
SIREN          FLURRIES  19  12  75 W9        30.19F WCI   8
CUMBERLAND     LGT SNOW  18  12  79 W12       30.17S WCI   5
RICE LAKE      LGT SNOW  18  13  80 SW8       30.21S WCI   8
CHETEK         FLURRIES  17  12  81 S8        30.21S WCI   6
LADYSMITH      LGT SNOW  17  12  81 S8        30.20S WCI   6
EAU CLAIRE     CLOUDY    16  11  80 SW9       30.24S HAZE    WCI   4
MENOMONIE      FLURRIES  19  13  77 SW10      30.24S WCI   8
NEW RICHMOND   LGT SNOW  19  13  78 W12       30.23R WCI   6
OSCEOLA        PTSUNNY   19  12  74 W13       30.26S WCI   6
$$

WIZ003>005-009-010-017-018-011700-
NORTH CENTRAL WISCONSIN

CITY           SKY/WX    TMP DP  RH WIND       PRES   REMARKS
MANITOWISH WTR LGT SNOW  14   8  78 SW12G18   30.11S WCI   1
ARBOR VITAE    LGT SNOW  17  11  77 SW9       30.12S WCI   5
WOODRUFF       LGT SNOW  17  11  77 SW9       30.12S WCI   5
RHINELANDER    LGT SNOW  14   8  77 SW13      30.14S WCI   0
EAGLE RIVER    FLURRIES  15   6  69 SW9       30.12S WCI   3
LAND O LAKES   LGT SNOW  17   8  67 SW10G18   30.11S WCI   4
PHILLIPS       LGT SNOW  14   9  81 SW12      30.15S WCI   0
TOMAHAWK       LGT SNOW  15   9  76 CALM      30.17R
MEDFORD        LGT SNOW  13   9  83 SW10      30.18S WCI   0
MERRILL        LGT SNOW  14   8  79 SW9       30.20S WCI   2
$$

WIZ029-030-035-036-043>047-011700-
CENTRAL WISCONSIN

CITY           SKY/WX    TMP DP  RH WIND       PRES   REMARKS
WAUSAU         LGT SNOW  13   8  81 SW8       30.21F WCI   2
MOSINEE        LGT SNOW  12   9  85 S10       30.23F WCI  -1
MARSHFIELD     CLOUDY    13   8  81 SW9       30.22F HAZE    WCI   1
STEVENS POINT  FLURRIES  14   8  79 W7        30.25F WCI   4
WAUPACA        MOSUNNY   24  12  62 S7        30.27F WCI  15
WAUTOMA        MOSUNNY   19  10  68 SW6       30.30F WCI  11
WISC RAPIDS    PTSUNNY   16   9  74 SW8       30.27F WCI   5
CAMP DOUGLAS   PTSUNNY   21  16  79 SW6       30.28F WCI  14
$$

WIZ011>013-019>022-031-037>040-048>050-011700-
NORTHEAST WISCONSIN

CITY           SKY/WX    TMP DP  RH WIND       PRES   REMARKS
ANTIGO         LGT SNOW  13   8  79 SW12      30.18F WCI  -1
SHAWANO        MOSUNNY   19  11  68 SW6       30.27F WCI  11
OCONTO         MOSUNNY   20  11  66 S9        30.27F WCI   9
STURGEON BAY   MOSUNNY   19   9  63 SW8       30.28F WCI   9
GREEN BAY      MOSUNNY   19  12  74 SW10      30.29F WCI   7
MANITOWOC      MOSUNNY   23  14  68 SW7       30.31F WCI  15
APPLETON       FLURRIES  16  10  79 SW10      30.29S WCI   3
CLINTONVILLE   MOSUNNY   19  10  68 SW12      30.27F WCI   7
OSHKOSH        MOSUNNY   20  12  71 SW8       30.29F WCI  10
$$

WIZ032>034-041-042-053>061-011700-
SOUTHWEST WISCONSIN

CITY           SKY/WX    TMP DP  RH WIND       PRES   REMARKS
LA CROSSE      CLOUDY    17  12  80 S7        30.30F WCI   8
SPARTA         LGT SNOW  18  12  78 W5        30.30F WCI  11
VIROQUA        CLOUDY    18  13  80 SW8       30.27S WCI   8
BOSCOBEL       MOSUNNY   20  12  71 SW8       30.33F WCI  10
PRAIRIE DU CHI SUNNY     19  11  71 CALM      30.34S
PLATTEVILLE    CLOUDY    15  13  91 S3        30.32F
$$

WIZ056-057-062-063-064-067-068-011700-
SOUTH CENTRAL WISCONSIN

CITY           SKY/WX    TMP DP  RH WIND       PRES   REMARKS
REEDSBURG      MOSUNNY   18  12  77 SW7       30.30F WCI   9
BARABOO/DELLS  MOSUNNY   19  12  76 W6        30.29F WCI  11
LONE ROCK      PTSUNNY   19  11  70 CALM      30.34S
MINERAL POINT  LGT SNOW  18  14  86 S3        30.30S
MADISON        CLOUDY    18  11  74 S6        30.33S WCI  10
MIDDLETON      CLOUDY    21  12  69 SW5       30.32F WCI  14
WATERTOWN      MOSUNNY   19  13  79 W6        30.32S WCI  11
MONROE         PTSUNNY   18  18 100 W8        30.32R WCI   7
JANESVILLE     MOSUNNY   18  14  86 W6        30.34F FOG     WCI   9
$$

WIZ051-052-058>065-066-070>072-011700-
SOUTHEAST WISCONSIN

CITY           SKY/WX    TMP DP  RH WIND       PRES   REMARKS
MILWAUKEE      PTSUNNY   19  13  77 SW5       30.33F HAZE    WCI  12
WAUKESHA       MOSUNNY   16  12  86 SW5       30.32F WCI   9
MILWAUKEE/TIMM NOT AVBL
RACINE         PTSUNNY   17  13  84 W6        30.35F WCI   9
BURLINGTON     PTSUNNY   18  13  80 SW3       30.33F
KENOSHA        PTSUNNY   19  16  88 SW3       30.34F FOG
FOND DU LAC    MOSUNNY   19  12  74 SW7       30.31F WCI  10
SHEBOYGAN      MOSUNNY   19  11  70 W8        30.31F WCI   9
WEST BEND      MOSUNNY   21  12  68 W8        30.30F WCI  12
JUNEAU         SUNNY     19  13  80 SW7       30.32F WCI   9
$$

LSZ147-162-011700-
LAKE SUPERIOR

STATION/POSITION TIME  TEMP    WIND        PRES    WAVE
                       AIR SEA DIR/SP/G            HT/PER
                 (UTC) (F)     (DEG/KT/KT) (MB)    (FT/S)
DEVILS ISLAND    1600   17     230/ 13/ 19 1021.7F
PORT WING        1540   19     250/ 13/ 17 1021.3R
SAXON HARBOR     1500   17     210/  9/ 15 1021.3
$$

LMZ867-665-643>646-011700-
LAKE MICHIGAN

STATION/POSITION TIME  TEMP    WIND        PRES    WAVE
                       AIR SEA DIR/SP/G            HT/PER
                 (UTC) (F)     (DEG/KT/KT) (MB)    (FT/S)
NORTHPORT PIER   1607   20     230/  6/ 14 1024.4F
KEWAUNEE LAKESHO 1500   16     240/  8/ 11 1025.2F
SHEBOYGAN LAKESH 1600   18     230/  7/ 10 1028.2F
PORT WASHINGTON  1540   21     250/  7/ 10 1027.8F
MILWAUKEE LAKESH 1600   20     250/  6/  8   N/A
KENOSHA   LAKESH 1600   18     240/  3/  4 1027.8F
$$

TC  - TEMPERATURE IN CELSIUS
VSB - VISIBILITY IN STATUTE MILES
WCI - WIND CHILL INDEX
HX  - HEAT INDEX



USA.gov is the U.S. government's official web portal to all federal, state and local government web resources and services.